Fort Drum, NY

10:47 PM EST on November 13, 2019 (GMT -0500)
Wheeler-Sack Army Air Field

Weather History for KGTB - October, 2019

Change the Weather History Date:

Friday, October 18, 2019

  Actual Average Record
Temperature  
Mean Temperature 43 °F -  
Max Temperature 45 °F 52 °F 79 °F (2016)
Min Temperature 38 °F 35 °F 24 °F (1997)
Degree Days  
Heating Degree Days 22    
Moisture  
Dew Point 36 °F    
Average Humidity 77    
Maximum Humidity 88    
Minimum Humidity 67    
Precipitation  
Precipitation 0.00 in - - ()
Sea Level Pressure  
Sea Level Pressure 29.88 in    
Wind  
Wind Speed 5 mph (NW)    
Max Wind Speed 10 mph    
Max Gust Speed 16 mph    
Visibility 10 miles    
Events      
Averages and records for this station are not official NWS values.
T = Trace of Precipitation, MM = Missing Value Source: NWS Daily Summary

Daily Weather History Graph

Daily Weather History Graph

Search for Another Location

Airport or City:

Astronomy

Oct. 18, 2019 Rise Set
Actual Time 7:20 AM EDT 6:14 PM EDT
Civil Twilight 6:51 AM EDT 6:43 PM EDT
Nautical Twilight 6:18 AM EDT 7:17 PM EDT
Astronomical Twilight 5:44 AM EDT 7:50 PM EDT
Moon 9:20 PM EDT (10/18) 11:59 AM EDT (10/18)
Length of Visible Light 11h 51m
Length of Day
10h 53m
Waning Gibbous, 79% of the Moon is Illuminated
Oct 18
Waning Gibbous
Oct 21
Last Quarter
Oct 27
New
Nov 4
First Quarter
Nov 12
Full

Hourly Weather History & Observations

Time (EDT) Temp. Windchill Dew Point Humidity Pressure Visibility Wind Dir Wind Speed Gust Speed Precip Events Conditions
12:56 AM 43.9 °F 39.9 °F 38.5 °F 81% 29.67 in 10.0 mi NW 6.9 mph - N/A   Overcast
1:56 AM 43.3 °F 39.9 °F 37.9 °F 81% 29.70 in 10.0 mi NW 5.8 mph - N/A   Overcast
2:56 AM 43.3 °F 39.9 °F 37.2 °F 79% 29.73 in 10.0 mi NW 5.8 mph - N/A   Overcast
3:20 AM 42.8 °F 40.1 °F 37.4 °F 81% 29.73 in 10.0 mi NW 4.6 mph - N/A   Overcast
3:56 AM 43.3 °F 40.7 °F 37.2 °F 79% 29.75 in 10.0 mi NW 4.6 mph - N/A   Overcast
4:16 AM 42.8 °F 41.1 °F 37.4 °F 81% 29.75 in 10.0 mi NW 3.5 mph - N/A   Overcast
4:56 AM 43.0 °F 40.3 °F 37.9 °F 82% 29.76 in 10.0 mi NW 4.6 mph - N/A   Overcast
5:06 AM 42.8 °F 39.3 °F 37.4 °F 81% 29.76 in 10.0 mi NW 5.8 mph - N/A   Overcast
5:16 AM 42.8 °F 39.3 °F 37.4 °F 81% 29.78 in 10.0 mi WNW 5.8 mph - N/A   Overcast
5:22 AM 42.8 °F 40.1 °F 37.4 °F 81% 29.78 in 10.0 mi NW 4.6 mph - N/A   Light Drizzle
5:35 AM 42.8 °F 38.6 °F 37.4 °F 81% 29.78 in 10.0 mi NW 6.9 mph - N/A   Overcast
5:56 AM 42.8 °F 40.1 °F 37.4 °F 81% 29.80 in 10.0 mi WNW 4.6 mph - 0.00 in   Overcast
6:46 AM 42.8 °F 38.6 °F 37.4 °F 81% 29.81 in 10.0 mi NW 6.9 mph - N/A   Overcast
6:56 AM 42.8 °F 38.0 °F 36.5 °F 78% 29.83 in 10.0 mi NNW 8.1 mph - N/A   Overcast
7:46 AM 42.8 °F 38.6 °F 37.4 °F 81% 29.85 in 10.0 mi NW 6.9 mph - N/A   Overcast
7:56 AM 42.6 °F 39.9 °F 36.3 °F 78% 29.85 in 10.0 mi NW 4.6 mph - N/A   Overcast
8:56 AM 43.0 °F 40.3 °F 36.7 °F 78% 29.87 in 10.0 mi NW 4.6 mph - N/A   Overcast
9:56 AM 43.3 °F 38.1 °F 35.6 °F 74% 29.88 in 10.0 mi NNW 9.2 mph - N/A   Overcast
10:56 AM 43.3 °F 40.7 °F 35.2 °F 73% 29.91 in 10.0 mi NW 4.6 mph - N/A   Overcast
11:26 AM 42.8 °F 38.6 °F 35.6 °F 76% 29.91 in 10.0 mi NW 6.9 mph - N/A   Overcast
11:56 AM 42.8 °F 37.0 °F 35.4 °F 75% 29.92 in 10.0 mi WNW 10.4 mph 16.1 mph N/A   Overcast
12:46 PM 42.8 °F 39.3 °F 33.8 °F 70% 29.93 in 10.0 mi WNW 5.8 mph - N/A   Overcast
12:56 PM 43.2 °F 39.0 °F 34.3 °F 71% 29.93 in 10.0 mi NW 6.9 mph - N/A   Overcast
1:56 PM 43.7 °F 40.3 °F 34.2 °F 69% 29.95 in 10.0 mi NW 5.8 mph - N/A   Overcast
2:56 PM 44.2 °F 41.8 °F 34.3 °F 68% 29.95 in 10.0 mi NW 4.6 mph - N/A   Overcast
3:56 PM 44.6 °F 42.2 °F 34.3 °F 67% 29.97 in 10.0 mi West 4.6 mph - N/A   Overcast
4:16 PM 44.6 °F 43.1 °F 35.6 °F 71% 29.97 in 10.0 mi West 3.5 mph - N/A   Overcast
4:56 PM 45.7 °F - 35.4 °F 67% 29.98 in 10.0 mi Calm Calm - N/A   Overcast
5:56 PM 45.3 °F - 35.8 °F 69% 29.98 in 10.0 mi Calm Calm - N/A   Overcast
6:56 PM 43.9 °F 41.3 °F 37.4 °F 78% 30.00 in 10.0 mi WNW 4.6 mph - N/A   Overcast
7:36 PM 44.6 °F 43.1 °F 37.4 °F 76% 30.01 in 10.0 mi West 3.5 mph - N/A   Mostly Cloudy
7:56 PM 45.0 °F 42.6 °F 36.5 °F 72% 30.02 in 10.0 mi WNW 4.6 mph - N/A   Overcast
8:46 PM 42.8 °F - 37.4 °F 81% 30.02 in 10.0 mi Calm Calm - N/A   Overcast
8:56 PM 41.7 °F - 36.9 °F 83% 30.02 in 10.0 mi Calm Calm - N/A   Mostly Cloudy
9:56 PM 41.7 °F 39.8 °F 36.3 °F 81% 30.03 in 10.0 mi NNE 3.5 mph - N/A   Mostly Cloudy
10:56 PM 41.4 °F 39.4 °F 36.0 °F 81% 30.03 in 10.0 mi ENE 3.5 mph - N/A   Overcast
11:56 PM 38.7 °F - 35.4 °F 88% 30.03 in 10.0 mi Calm Calm - N/A   Mostly Cloudy